SCP
0 0 0 0 0 0 0 -0 -0 -0 -0 -0 -0 -0 -0 -0 -0 -0 -0 -0 -0 0 0 -0 -0 -0 -0 0 0 0 0 0 -0 -0 -0 0 -0 0 -0 -0 0 -0 0 0 0 0 0
0 0 0 0 0 0 0 -0 -0 -0 -0 -0 -0 -0 -0 -0 -0 -0 -0 -0 0 -0 -0 -0 0 0 0 0 0 0 0 0 -0 -0 0 0 -0 -0 0 0 0 0 0 0 0 0 -0
0 0 0 0 0 0 0 0 0 0 0 -0 -0 -0 -0 0 -0 -0 0 0 0 0 -0 -0 -0 -0 0 0 0 0 0 0 0 0 0 -0 -0 -0 0 0 -0 0 0 0 0 0 -0
0 0 0 0 0 0 0 0 0 0 0 0 0 -0 -0 0 0 0 0 0 0 0 0 -0 -0 -0 0 0 0 0 0 0 0 -0 -0 0 0 0 0 0 0 0 0 0 0 0 0
0 0 0 0 0 0 0 0 0 0 0 0 0 0 0 0 0 0 0 -0 -0 0 -0 -0 -0 -0 0 0 0 0 0 0 0 0 0 0 0 0 0 0 0 0 0 0 0 -0 0
0 0 0 0 0 0 0 0 0 0 0 0 0 0 0 0 0 0 0 -0 0 -0 0 -0 -0 -0 0 0 0 0 0 0 0 0 0 0 0 0 0 0 -0 0 0 0 0 0 0
0 0 0 0 0 0 0 0 0 0 0 0 0 0 0 0 0 0 0 0 0 -0 -0 0 0 0 0 0 -0 0 0 0 0 0 0 0 0 0 0 0 0 0 0 0 0 0 0
0 0 0 0 0 0 0 0 0 0 0 0 0 0 0 0 0 0 0 0 0 0 0 0 0 0 0 0 0 0 -0 0 0 0 0 0 0 0 0 0 0 0 0 0 0 0 0
0 0 0 0 0 0 0 0 0 0 0 0 0 0 0 0 0 -0 0 0 0 0 0 0 0 0 0 0 0 0 0 0 0 0 0 0 0 0 0 0 0 0 0 0 0 0 0
0 0 0 0 0 0 0 0 0 0 0 0 0 0 0 0 -0 0 0 0 -0 -0 0 0 0 0 0 0 0 0 0 0 0 0 0 0 0 0 0 0 0 0 0 0 0 0 0
0 0 0 0 0 0 0 0 0 0 0 0 0 0 0 -0 -0 0 0 -0 -0 -0 0 0 0 0 0 0 0 0 0 0 0 0 0 0 0 0 0 0 0 0 0 0 0 0 0
0 0 0 0 0 0 0 0 0 0 0 0 0 0 0 -0 -0 0 -0 -0 -0 0 0 0 0 0 0 0 0 0 0 0 0 0 0 0 0 0 0 0 0 0 0 0 0 0 0
0 0 0 0 0 0 0 0 0 0 0 -0 -0 -0 -0 -0 0 -0 -0 -0 0 0 0 0 0 0 0 0 0 0 0 0 0 0 0 0 0 0 0 0 0 0 0 0 0 0 0
0 0 0 0 0 0 -0 0 0 -0 -0 -0 -0 -0 0 0 0 -0 0 0 0 0 0 0 0 0 0 0 0 0 0 0 -0 0 0 0 0 0 0 0 0 0 0 0 0 0 0
0 0 0 0 0 0 0 -0 -0 -0 -0 -0 -0 -0 0 -0 -0 0 -0 0 -0 -0 0 0 0 0 0 0 0 0 0 0 0 0 0 0 0 0 0 0 0 0 0 0 0 0 0
0 0 0 0 0 0 0 -0 -0 -0 -0 -0 -0 0 0 -0 -0 -0 -0 0 0 0 0 0 0 0 0 0 0 0 0 0 0 0 0 0 0 0 0 0 0 0 0 0 0 0 0
0 0 0 0 0 0 0 0 -0 -0 -0 -0 0 -0 0 0 0 -0 0 -0 0 0 0 0 0 0 0 0 0 0 0 0 0 0 0 0 0 0 0 0 0 0 0 0 0 0 0
0 0 0 0 0 0 0 -0 0 -0 -0 -0 0 -0 0 -0 -0 0 0 0 0 0 0 0 0 0 0 0 0 0 0 0 0 0 0 0 0 0 0 0 0 0 0 0 0 0 0
0 0 0 0 0 0 0 0 -0 -0 -0 0 0 -0 0 -0 -0 0 0 0 0 0 0 0 0 0 0 0 0 0 0 0 0 0 0 0 0 0 0 0 0 0 0 0 0 0 0
0 0 0 0 0 0 0 -0 -0 -0 -0 0 0 0 0 0 0 0 0 0 0 0 0 -0 -0 -0 -0 -0 0 0 0 0 0 0 0 0 0 0 0 0 0 0 0 0 0 0 0
0 0 0 0 0 0 0 0 -0 -0 -0 0 0 0 0 0 0 0 0 0 -0 -0 -0 0 0 0 0 0 0 0 0 0 0 0 0 0 0 0 0 0 0 0 0 0 0 0 0
0 0 0 0 0 0 0 0 -0 -0 -0 0 -0 -0 0 0 0 0 -0 -0 -0 0 0 0 0 0 0 0 0 0 0 0 0 0 0 0 0 0 0 0 0 0 0 0 0 0 0
0 0 0 0 0 0 0 0 0 -0 -0 -0 -0 0 -0 0 0 -0 -0 -0 0 0 0 0 0 0 0 0 0 0 -0 0 0 0 0 0 0 0 0 0 0 0 0 0 0 0 0
0 0 0 0 0 0 0 -0 -0 -0 -0 -0 -0 -0 -0 -0 0 0 0 0 0 0 0 0 0 0 0 0 0 0 0 -0 -0 -0 0 0 0 0 0 0 0 0 0 0 0 0 0
0 0 0 0 0 0 -0 -0 -0 -0 -0 -0 -0 -0 -0 0 0 0 0 -0 0 0 0 0 0 0 0 0 0 0 0 -0 -0 -0 0 0 0 0 0 0 0 0 0 0 0 0 0
0 0 0 0 0 0 -0 -0 -0 -0 -0 -0 -0 -0 -0 -0 0 0 -0 0 -0 -0 0 0 0 0 0 0 0 0 0 0 0 0 -0 -0 -0 0 0 0 0 0 0 0 0 0 0
0 0 0 0 0 -0 -0 -0 -0 -0 -0 -0 -0 -0 -0 0 0 -0 -0 -0 0 0 0 0 0 0 0 0 0 0 0 0 0 0 -0 0 -0 0 0 0 0 0 0 0 0 0 0
0 0 0 0 -0 -0 -0 -0 -0 0 0 0 0 0 -0 0 0 0 -0 -0 -0 0 0 0 0 0 0 0 0 0 0 0 0 -0 0 -0 -0 -0 -0 0 0 0 0 0 0 0 0
0 0 0 0 0 -0 -0 0 0 0 0 0 0 0 0 0 0 0 0 0 0 0 0 0 0 0 0 0 0 0 0 0 0 0 0 -0 -0 -0 -0 -0 0 0 0 0 0 0 0
Wind_Speed_500mb
32 32 32 33 35 37 40 42 43 43 42 42 42 42 42 41 39 36 34 31 30 32 27 20 20 18 5 12 6 9 13 19 34 53 46 51 48 45 36 33 28 35 19 18 15 16 23
33 32 33 34 35 37 39 41 43 44 45 44 43 43 44 44 39 35 34 33 27 27 23 14 19 11 5 22 1 9 4 18 38 56 47 50 42 44 36 37 31 22 38 23 15 21 26
36 36 36 37 39 41 43 44 44 45 45 46 46 44 43 42 39 33 34 32 25 17 9 10 11 14 10 8 2 6 3 13 36 50 46 48 36 40 27 29 34 40 22 31 33 28 28
38 39 39 41 42 42 42 44 46 46 46 45 46 44 43 42 38 32 34 31 17 9 4 3 11 4 3 3 6 1 6 20 29 39 37 39 40 29 44 23 14 35 37 32 37 39 38
41 40 40 42 42 43 45 45 44 45 47 47 48 46 42 39 34 29 34 29 8 11 5 6 4 5 13 9 1 7 10 21 33 30 33 34 34 37 45 26 25 31 33 42 36 46 36
45 41 42 44 44 46 46 46 46 45 45 46 48 45 41 36 30 25 29 19 9 6 4 1 7 14 5 3 2 6 10 19 35 27 31 31 27 33 32 32 31 34 39 39 38 29 40
48 46 44 44 46 47 46 45 45 46 47 48 50 44 38 31 23 20 20 19 7 8 24 13 8 3 8 3 3 4 14 27 28 33 32 46 30 37 44 40 42 36 35 41 33 24 34
46 47 47 45 46 47 46 45 46 45 45 47 49 44 35 24 10 14 20 9 9 9 14 10 6 6 2 4 10 9 19 27 27 33 39 27 42 41 36 36 38 41 29 35 36 31 29
47 50 50 48 46 45 43 44 46 47 49 49 50 42 28 17 5 11 6 9 11 9 16 22 12 7 6 9 5 8 16 25 23 37 41 43 22 40 41 38 34 38 38 35 28 34 31
50 50 51 48 43 44 45 46 48 50 52 51 49 39 21 4 1 8 1 17 14 9 11 24 19 10 13 10 16 5 5 14 19 29 38 40 45 18 44 42 38 38 36 39 32 34 31
55 50 50 44 42 44 46 47 50 53 51 49 44 35 11 4 6 8 13 19 7 9 11 12 18 5 7 20 10 16 6 15 26 23 21 32 36 45 37 39 38 36 34 34 36 36 34
51 46 45 42 43 46 49 52 55 54 50 45 39 26 8 10 5 9 15 14 5 14 3 14 6 7 21 11 12 2 10 13 14 20 29 34 34 30 42 34 31 36 35 34 30 30 35
47 43 40 42 43 47 52 54 53 50 47 41 32 9 7 8 11 21 14 10 14 14 5 14 6 9 8 7 14 10 9 20 19 23 31 36 41 34 27 34 43 32 36 27 27 30 37
42 39 40 41 45 51 55 53 50 47 45 39 26 1 10 5 23 15 11 19 15 13 7 9 4 9 16 6 18 8 18 20 18 22 27 25 32 43 34 42 37 44 42 28 48 30 42
39 40 41 44 49 52 53 51 47 43 44 40 13 4 5 15 18 7 20 18 17 23 12 14 12 20 21 14 11 6 19 23 11 6 26 20 40 5 10 30 42 42 47 51 50 42 33
40 41 44 47 51 53 51 47 45 46 46 35 6 7 8 23 10 6 18 7 8 15 15 12 19 8 20 7 9 15 13 13 3 5 17 17 25 31 8 12 35 38 32 42 36 50 53
41 44 47 49 50 49 48 45 45 47 45 16 6 13 13 19 4 21 13 14 6 11 17 13 18 20 13 21 18 21 24 9 6 10 13 30 20 31 33 24 35 31 39 36 38 45 40
44 46 49 50 48 45 43 43 47 49 44 18 6 7 25 15 18 7 13 9 4 9 2 7 9 15 19 24 27 21 26 16 13 12 19 19 25 27 46 26 31 42 48 49 34 45 41
48 48 49 47 43 43 42 44 46 45 41 16 8 12 26 11 6 11 9 10 8 13 12 11 10 2 17 14 14 18 19 21 8 13 11 19 20 26 37 30 34 38 47 34 38 45 48
49 48 47 44 43 43 43 43 43 38 30 14 12 2 10 27 18 12 2 12 7 13 7 11 16 15 12 14 15 11 17 8 14 24 16 17 29 33 30 16 25 27 51 48 44 36 44
48 45 43 40 41 43 42 42 39 31 26 19 17 11 10 17 21 17 19 8 15 20 19 13 5 9 12 17 16 23 27 28 23 23 21 21 36 38 39 42 30 34 37 31 44 38 41
45 43 43 41 41 42 42 38 35 26 29 21 13 8 16 19 20 18 12 16 10 10 10 10 14 19 13 19 23 26 20 25 24 17 25 30 35 37 39 40 35 40 40 39 44 43 42
41 42 44 42 40 39 36 33 30 28 30 15 17 14 8 10 9 5 10 8 9 12 7 19 19 20 22 25 26 30 36 36 31 23 26 28 16 25 38 39 43 45 48 47 49 51 46
41 42 43 42 38 33 29 26 21 23 35 17 15 14 12 13 12 8 9 12 8 12 13 13 13 13 12 21 29 42 50 48 48 41 43 27 21 23 26 35 35 35 32 36 40 54 49
41 43 43 40 33 28 24 18 18 25 36 21 15 11 7 16 24 19 18 12 9 13 11 9 3 15 22 30 19 22 27 30 41 44 40 38 25 12 11 26 29 49 9 14 19 35 52
42 43 41 35 28 23 18 12 22 23 26 21 19 19 10 9 22 17 13 11 13 15 4 14 15 12 17 12 6 10 7 8 6 8 30 39 33 20 27 22 34 31 13 19 19 23 45
42 42 36 28 26 21 12 13 22 23 25 24 10 18 9 12 20 27 21 13 13 15 6 13 15 8 13 7 7 7 5 6 7 12 9 26 25 31 30 24 21 14 8 18 14 1 39
40 39 30 23 22 17 9 15 18 15 13 22 3 13 10 10 12 16 20 23 16 15 7 20 4 6 5 5 5 7 7 5 9 16 8 16 13 22 30 33 33 33 20 13 14 29 28
38 35 25 16 21 17 8 14 17 16 13 16 6 14 6 7 7 4 6 8 11 8 7 11 4 7 7 3 4 5 4 5 10 5 13 5 9 9 9 14 10 16 18 30 34 39 32
Wind_Direction_500mb
24 20 15 10 5 2 358 355 353 352 352 352 351 348 346 342 340 338 337 331 325 318 313 314 313 300 306 219 204 308 247 212 192 183 194 196 202 205 219 223 222 231 245 258 190 226 177
16 12 7 2 358 355 353 351 349 348 347 347 346 346 343 340 340 339 339 336 327 318 319 325 317 288 157 239 216 321 249 208 196 189 197 199 209 210 233 249 232 231 239 247 239 192 214
5 0 357 353 351 350 348 347 346 345 344 343 343 345 341 336 336 338 340 340 329 323 332 352 76 112 250 38 196 304 167 170 189 185 197 200 207 215 234 258 236 251 251 228 236 199 222
358 354 350 348 347 345 345 343 342 340 339 340 341 343 342 336 333 336 342 342 329 337 320 56 114 60 22 330 248 232 185 177 184 188 205 202 211 241 232 247 259 236 241 245 209 217 217
357 353 350 347 347 343 342 340 340 340 338 339 340 342 341 337 332 339 342 342 321 18 144 69 19 253 122 341 208 203 158 177 175 190 204 206 220 230 229 238 239 215 231 222 238 198 210
356 351 348 346 346 343 343 341 340 340 338 339 338 341 339 334 330 342 346 8 6 304 60 237 258 244 132 80 123 177 194 183 179 179 191 194 217 229 220 216 228 217 218 238 221 209 203
357 351 345 344 345 342 343 342 342 341 340 340 338 341 338 330 326 356 15 323 271 214 225 306 42 356 114 106 132 161 165 162 176 194 199 198 213 214 215 228 237 266 239 228 214 177 228
345 346 343 342 344 342 345 344 342 341 340 338 334 338 334 328 317 20 22 19 15 330 281 206 198 201 189 194 167 129 176 201 202 207 210 189 221 224 228 231 231 252 258 262 234 191 206
344 343 342 341 343 344 346 345 342 341 340 336 333 337 337 328 293 12 5 5 326 305 252 173 201 214 177 232 256 100 220 221 215 214 207 227 215 221 233 231 236 233 241 244 248 236 209
344 338 342 343 346 345 345 345 341 340 339 334 334 336 341 352 134 332 170 332 318 248 256 142 203 171 208 243 200 208 237 271 228 238 233 226 245 219 218 234 228 237 220 257 257 255 225
343 341 339 343 347 346 346 343 339 339 337 335 334 336 335 241 275 300 306 326 291 197 251 147 125 93 199 219 94 157 225 236 264 222 252 227 228 240 222 234 226 242 251 227 240 253 260
347 345 344 347 348 346 344 342 341 340 337 340 337 344 66 4 321 302 316 314 187 229 190 124 133 171 202 199 179 153 217 231 297 283 270 264 259 235 244 226 236 239 243 255 245 233 241
349 348 349 348 347 344 343 344 342 342 338 341 339 11 52 81 308 306 301 260 232 252 164 126 150 205 266 152 177 254 228 217 242 228 231 231 238 245 245 252 216 214 228 223 224 222 235
353 355 350 348 347 345 345 347 346 344 342 343 336 267 348 336 326 300 279 247 257 41 48 67 230 214 256 120 212 227 245 245 197 270 285 277 221 215 216 231 235 217 228 226 220 222 233
358 354 350 351 346 347 348 351 351 350 348 347 1 6 352 311 315 291 248 239 7 22 15 342 292 247 254 160 275 210 241 288 20 347 292 272 246 172 261 221 230 234 218 239 258 250 254
356 353 351 350 347 348 351 354 353 351 351 347 23 209 357 337 310 241 243 324 43 16 342 289 289 315 297 200 203 200 263 91 253 276 311 296 280 276 248 263 269 262 248 223 235 245 251
355 352 350 348 348 348 351 354 353 353 355 4 47 233 343 345 313 242 284 56 44 55 349 328 322 303 284 291 303 272 295 94 222 289 294 300 285 269 266 215 249 222 250 256 262 224 244
352 349 348 348 348 350 353 353 354 354 2 30 298 274 344 343 249 321 28 14 4 4 359 320 299 280 280 293 292 279 274 280 51 302 294 290 288 265 254 233 249 253 250 235 246 242 227
348 349 348 348 351 353 355 356 356 358 4 29 356 34 13 316 325 86 120 95 9 353 359 344 319 316 339 297 310 298 276 294 358 265 281 291 235 255 251 261 262 260 250 250 265 255 240
348 349 349 350 354 358 356 358 357 3 15 46 311 207 81 51 51 27 15 54 35 68 346 330 309 303 298 285 276 262 272 321 271 263 18 307 276 271 273 278 336 269 230 248 245 245 243
348 352 350 353 356 356 356 359 0 13 53 27 1 55 6 15 34 28 14 6 40 13 17 330 277 329 308 292 276 249 256 258 229 227 235 250 257 264 267 273 273 283 289 252 239 259 259
351 352 350 353 356 354 352 1 8 40 57 42 8 17 64 41 34 6 43 64 7 336 305 319 302 340 278 277 278 294 294 296 276 256 255 244 249 276 274 278 265 261 256 253 261 253 255
351 353 349 351 354 353 353 8 20 75 57 55 58 51 1 118 34 35 25 7 329 297 286 292 311 304 290 294 311 276 277 267 258 269 274 256 252 259 263 259 264 243 241 241 241 242 245
350 353 349 348 353 355 359 20 45 84 80 64 75 78 57 57 67 62 339 355 323 323 302 312 262 267 291 301 289 278 265 262 262 258 232 222 251 252 265 273 245 268 241 248 252 244 237
350 352 349 348 357 4 7 33 80 85 90 69 50 80 47 57 38 32 35 356 353 304 226 317 334 290 296 290 292 279 250 248 243 240 241 245 213 251 242 257 260 258 44 1 331 288 227
349 353 350 352 4 15 19 54 102 91 99 83 75 84 68 25 37 27 344 39 8 352 188 42 349 334 320 298 257 263 311 338 275 247 252 232 230 205 258 248 254 272 46 343 316 248 359
347 353 354 359 14 26 47 99 121 110 92 85 62 79 19 56 43 27 34 357 349 16 289 283 313 331 6 355 273 280 302 349 265 265 251 201 230 208 228 248 259 316 2 327 256 161 340
346 353 356 4 21 31 74 122 130 139 113 92 311 50 41 356 65 37 30 21 18 28 328 344 292 36 353 284 313 352 325 338 285 286 292 184 204 220 238 238 244 14 308 294 352 315 331
344 352 356 2 24 36 71 149 147 142 135 90 340 325 339 260 342 313 357 27 48 36 349 349 42 38 50 301 352 308 309 319 302 301 327 269 350 287 293 250 5 345 315 308 306 291 288
Wind_Speed_850mb
32 32 32 33 35 37 40 42 43 43 42 42 42 42 42 41 39 36 34 31 30 32 27 20 20 18 5 12 6 9 13 19 34 53 46 51 48 45 36 33 28 35 19 18 15 16 23
33 32 33 34 35 37 39 41 43 44 45 44 43 43 44 44 39 35 34 33 27 27 23 14 19 11 5 22 1 9 4 18 38 56 47 50 42 44 36 37 31 22 38 23 15 21 26
36 36 36 37 39 41 43 44 44 45 45 46 46 44 43 42 39 33 34 32 25 17 9 10 11 14 10 8 2 6 3 13 36 50 46 48 36 40 27 29 34 40 22 31 33 28 28
38 39 39 41 42 42 42 44 46 46 46 45 46 44 43 42 38 32 34 31 17 9 4 3 11 4 3 3 6 1 6 20 29 39 37 39 40 29 44 23 14 35 37 32 37 39 38
41 40 40 42 42 43 45 45 44 45 47 47 48 46 42 39 34 29 34 29 8 11 5 6 4 5 13 9 1 7 10 21 33 30 33 34 34 37 45 26 25 31 33 42 36 46 36
45 41 42 44 44 46 46 46 46 45 45 46 48 45 41 36 30 25 29 19 9 6 4 1 7 14 5 3 2 6 10 19 35 27 31 31 27 33 32 32 31 34 39 39 38 29 40
48 46 44 44 46 47 46 45 45 46 47 48 50 44 38 31 23 20 20 19 7 8 24 13 8 3 8 3 3 4 14 27 28 33 32 46 30 37 44 40 42 36 35 41 33 24 34
46 47 47 45 46 47 46 45 46 45 45 47 49 44 35 24 10 14 20 9 9 9 14 10 6 6 2 4 10 9 19 27 27 33 39 27 42 41 36 36 38 41 29 35 36 31 29
47 50 50 48 46 45 43 44 46 47 49 49 50 42 28 17 5 11 6 9 11 9 16 22 12 7 6 9 5 8 16 25 23 37 41 43 22 40 41 38 34 38 38 35 28 34 31
50 50 51 48 43 44 45 46 48 50 52 51 49 39 21 4 1 8 1 17 14 9 11 24 19 10 13 10 16 5 5 14 19 29 38 40 45 18 44 42 38 38 36 39 32 34 31
55 50 50 44 42 44 46 47 50 53 51 49 44 35 11 4 6 8 13 19 7 9 11 12 18 5 7 20 10 16 6 15 26 23 21 32 36 45 37 39 38 36 34 34 36 36 34
51 46 45 42 43 46 49 52 55 54 50 45 39 26 8 10 5 9 15 14 5 14 3 14 6 7 21 11 12 2 10 13 14 20 29 34 34 30 42 34 31 36 35 34 30 30 35
47 43 40 42 43 47 52 54 53 50 47 41 32 9 7 8 11 21 14 10 14 14 5 14 6 9 8 7 14 10 9 20 19 23 31 36 41 34 27 34 43 32 36 27 27 30 37
42 39 40 41 45 51 55 53 50 47 45 39 26 1 10 5 23 15 11 19 15 13 7 9 4 9 16 6 18 8 18 20 18 22 27 25 32 43 34 42 37 44 42 28 48 30 42
39 40 41 44 49 52 53 51 47 43 44 40 13 4 5 15 18 7 20 18 17 23 12 14 12 20 21 14 11 6 19 23 11 6 26 20 40 5 10 30 42 42 47 51 50 42 33
40 41 44 47 51 53 51 47 45 46 46 35 6 7 8 23 10 6 18 7 8 15 15 12 19 8 20 7 9 15 13 13 3 5 17 17 25 31 8 12 35 38 32 42 36 50 53
41 44 47 49 50 49 48 45 45 47 45 16 6 13 13 19 4 21 13 14 6 11 17 13 18 20 13 21 18 21 24 9 6 10 13 30 20 31 33 24 35 31 39 36 38 45 40
44 46 49 50 48 45 43 43 47 49 44 18 6 7 25 15 18 7 13 9 4 9 2 7 9 15 19 24 27 21 26 16 13 12 19 19 25 27 46 26 31 42 48 49 34 45 41
48 48 49 47 43 43 42 44 46 45 41 16 8 12 26 11 6 11 9 10 8 13 12 11 10 2 17 14 14 18 19 21 8 13 11 19 20 26 37 30 34 38 47 34 38 45 48
49 48 47 44 43 43 43 43 43 38 30 14 12 2 10 27 18 12 2 12 7 13 7 11 16 15 12 14 15 11 17 8 14 24 16 17 29 33 30 16 25 27 51 48 44 36 44
48 45 43 40 41 43 42 42 39 31 26 19 17 11 10 17 21 17 19 8 15 20 19 13 5 9 12 17 16 23 27 28 23 23 21 21 36 38 39 42 30 34 37 31 44 38 41
45 43 43 41 41 42 42 38 35 26 29 21 13 8 16 19 20 18 12 16 10 10 10 10 14 19 13 19 23 26 20 25 24 17 25 30 35 37 39 40 35 40 40 39 44 43 42
41 42 44 42 40 39 36 33 30 28 30 15 17 14 8 10 9 5 10 8 9 12 7 19 19 20 22 25 26 30 36 36 31 23 26 28 16 25 38 39 43 45 48 47 49 51 46
41 42 43 42 38 33 29 26 21 23 35 17 15 14 12 13 12 8 9 12 8 12 13 13 13 13 12 21 29 42 50 48 48 41 43 27 21 23 26 35 35 35 32 36 40 54 49
41 43 43 40 33 28 24 18 18 25 36 21 15 11 7 16 24 19 18 12 9 13 11 9 3 15 22 30 19 22 27 30 41 44 40 38 25 12 11 26 29 49 9 14 19 35 52
42 43 41 35 28 23 18 12 22 23 26 21 19 19 10 9 22 17 13 11 13 15 4 14 15 12 17 12 6 10 7 8 6 8 30 39 33 20 27 22 34 31 13 19 19 23 45
42 42 36 28 26 21 12 13 22 23 25 24 10 18 9 12 20 27 21 13 13 15 6 13 15 8 13 7 7 7 5 6 7 12 9 26 25 31 30 24 21 14 8 18 14 1 39
40 39 30 23 22 17 9 15 18 15 13 22 3 13 10 10 12 16 20 23 16 15 7 20 4 6 5 5 5 7 7 5 9 16 8 16 13 22 30 33 33 33 20 13 14 29 28
38 35 25 16 21 17 8 14 17 16 13 16 6 14 6 7 7 4 6 8 11 8 7 11 4 7 7 3 4 5 4 5 10 5 13 5 9 9 9 14 10 16 18 30 34 39 32
Wind_Direction_850mb
24 20 15 10 5 2 358 355 353 352 352 352 351 348 346 342 340 338 337 331 325 318 313 314 313 300 306 219 204 308 247 212 192 183 194 196 202 205 219 223 222 231 245 258 190 226 177
16 12 7 2 358 355 353 351 349 348 347 347 346 346 343 340 340 339 339 336 327 318 319 325 317 288 157 239 216 321 249 208 196 189 197 199 209 210 233 249 232 231 239 247 239 192 214
5 0 357 353 351 350 348 347 346 345 344 343 343 345 341 336 336 338 340 340 329 323 332 352 76 112 250 38 196 304 167 170 189 185 197 200 207 215 234 258 236 251 251 228 236 199 222
358 354 350 348 347 345 345 343 342 340 339 340 341 343 342 336 333 336 342 342 329 337 320 56 114 60 22 330 248 232 185 177 184 188 205 202 211 241 232 247 259 236 241 245 209 217 217
357 353 350 347 347 343 342 340 340 340 338 339 340 342 341 337 332 339 342 342 321 18 144 69 19 253 122 341 208 203 158 177 175 190 204 206 220 230 229 238 239 215 231 222 238 198 210
356 351 348 346 346 343 343 341 340 340 338 339 338 341 339 334 330 342 346 8 6 304 60 237 258 244 132 80 123 177 194 183 179 179 191 194 217 229 220 216 228 217 218 238 221 209 203
357 351 345 344 345 342 343 342 342 341 340 340 338 341 338 330 326 356 15 323 271 214 225 306 42 356 114 106 132 161 165 162 176 194 199 198 213 214 215 228 237 266 239 228 214 177 228
345 346 343 342 344 342 345 344 342 341 340 338 334 338 334 328 317 20 22 19 15 330 281 206 198 201 189 194 167 129 176 201 202 207 210 189 221 224 228 231 231 252 258 262 234 191 206
344 343 342 341 343 344 346 345 342 341 340 336 333 337 337 328 293 12 5 5 326 305 252 173 201 214 177 232 256 100 220 221 215 214 207 227 215 221 233 231 236 233 241 244 248 236 209
344 338 342 343 346 345 345 345 341 340 339 334 334 336 341 352 134 332 170 332 318 248 256 142 203 171 208 243 200 208 237 271 228 238 233 226 245 219 218 234 228 237 220 257 257 255 225
343 341 339 343 347 346 346 343 339 339 337 335 334 336 335 241 275 300 306 326 291 197 251 147 125 93 199 219 94 157 225 236 264 222 252 227 228 240 222 234 226 242 251 227 240 253 260
347 345 344 347 348 346 344 342 341 340 337 340 337 344 66 4 321 302 316 314 187 229 190 124 133 171 202 199 179 153 217 231 297 283 270 264 259 235 244 226 236 239 243 255 245 233 241
349 348 349 348 347 344 343 344 342 342 338 341 339 11 52 81 308 306 301 260 232 252 164 126 150 205 266 152 177 254 228 217 242 228 231 231 238 245 245 252 216 214 228 223 224 222 235
353 355 350 348 347 345 345 347 346 344 342 343 336 267 348 336 326 300 279 247 257 41 48 67 230 214 256 120 212 227 245 245 197 270 285 277 221 215 216 231 235 217 228 226 220 222 233
358 354 350 351 346 347 348 351 351 350 348 347 1 6 352 311 315 291 248 239 7 22 15 342 292 247 254 160 275 210 241 288 20 347 292 272 246 172 261 221 230 234 218 239 258 250 254
356 353 351 350 347 348 351 354 353 351 351 347 23 209 357 337 310 241 243 324 43 16 342 289 289 315 297 200 203 200 263 91 253 276 311 296 280 276 248 263 269 262 248 223 235 245 251
355 352 350 348 348 348 351 354 353 353 355 4 47 233 343 345 313 242 284 56 44 55 349 328 322 303 284 291 303 272 295 94 222 289 294 300 285 269 266 215 249 222 250 256 262 224 244
352 349 348 348 348 350 353 353 354 354 2 30 298 274 344 343 249 321 28 14 4 4 359 320 299 280 280 293 292 279 274 280 51 302 294 290 288 265 254 233 249 253 250 235 246 242 227
348 349 348 348 351 353 355 356 356 358 4 29 356 34 13 316 325 86 120 95 9 353 359 344 319 316 339 297 310 298 276 294 358 265 281 291 235 255 251 261 262 260 250 250 265 255 240
348 349 349 350 354 358 356 358 357 3 15 46 311 207 81 51 51 27 15 54 35 68 346 330 309 303 298 285 276 262 272 321 271 263 18 307 276 271 273 278 336 269 230 248 245 245 243
348 352 350 353 356 356 356 359 0 13 53 27 1 55 6 15 34 28 14 6 40 13 17 330 277 329 308 292 276 249 256 258 229 227 235 250 257 264 267 273 273 283 289 252 239 259 259
351 352 350 353 356 354 352 1 8 40 57 42 8 17 64 41 34 6 43 64 7 336 305 319 302 340 278 277 278 294 294 296 276 256 255 244 249 276 274 278 265 261 256 253 261 253 255
351 353 349 351 354 353 353 8 20 75 57 55 58 51 1 118 34 35 25 7 329 297 286 292 311 304 290 294 311 276 277 267 258 269 274 256 252 259 263 259 264 243 241 241 241 242 245
350 353 349 348 353 355 359 20 45 84 80 64 75 78 57 57 67 62 339 355 323 323 302 312 262 267 291 301 289 278 265 262 262 258 232 222 251 252 265 273 245 268 241 248 252 244 237
350 352 349 348 357 4 7 33 80 85 90 69 50 80 47 57 38 32 35 356 353 304 226 317 334 290 296 290 292 279 250 248 243 240 241 245 213 251 242 257 260 258 44 1 331 288 227
349 353 350 352 4 15 19 54 102 91 99 83 75 84 68 25 37 27 344 39 8 352 188 42 349 334 320 298 257 263 311 338 275 247 252 232 230 205 258 248 254 272 46 343 316 248 359
347 353 354 359 14 26 47 99 121 110 92 85 62 79 19 56 43 27 34 357 349 16 289 283 313 331 6 355 273 280 302 349 265 265 251 201 230 208 228 248 259 316 2 327 256 161 340
346 353 356 4 21 31 74 122 130 139 113 92 311 50 41 356 65 37 30 21 18 28 328 344 292 36 353 284 313 352 325 338 285 286 292 184 204 220 238 238 244 14 308 294 352 315 331
344 352 356 2 24 36 71 149 147 142 135 90 340 325 339 260 342 313 357 27 48 36 349 349 42 38 50 301 352 308 309 319 302 301 327 269 350 287 293 250 5 345 315 308 306 291 288